581  
ASUS43 KLMK 230410  
RWRKY  
KENTUCKY REGIONAL WEATHER ROUNDUP  
NATIONAL WEATHER SERVICE LOUISVILLE KY  
1100 PM EST MON DEC 22 2014  
 
NOTE "FAIR" INDICATES FEW OR NO CLOUDS BELOW 12,000 FEET  
WITH NO SIGNIFICANT WEATHER AND/OR S TO VISIBILITY
.  
 
KYZ001>023-026-027-061>063-070>075-230500-  
WESTERN AND SOUTH CENTRAL KENTUCKY  
 
CITY SKY/WX TMP DP RH WIND PRES REMARKS
 
PADUCAH CLOUDY 53 51 93 S9G18 29.63R  
HENDERSON MOCLDY 52 46 82 S14 29.64R  
OWENSBORO LGT RAIN 52 51 96 S10 29.67R  
HOPKINSVILLE CLOUDY 52 51 96 S7 29.68R  
BOWLING GREEN CLOUDY 53 49 86 S12 29.71R  
GLASGOW LGT RAIN 52 51 97 S7 29.72R  

 
 
KYZ024-025-028>034-038-045-046-053-230500-  
NORTH CENTRAL KENTUCKY  
 
CITY SKY/WX TMP DP RH WIND PRES REMARKS
 
LOUISVILLE/SDF RAIN 51 49 92 S8 29.71R FOG  
LOUISVILLE/LOU LGT RAIN 52 48 86 S3 29.71R  
FORT KNOX RAIN 50 50 100 SE9 29.69R  

 
 
KYZ035>037-039>044-047>052-055>060-089>105-230500-  
NORTHEAST KENTUCKY  
 
CITY SKY/WX TMP DP RH WIND PRES REMARKS
 
LEXINGTON CLOUDY 52 44 74 SE10 29.73F  
COVINGTON LGT RAIN 47 39 74 S6 29.73R  
FRANKFORT CLOUDY 53 44 71 SE8 29.71S  

 
 
KYZ054-064>069-076>088-106>120-230500-  
SOUTHEAST KENTUCKY  
 
CITY SKY/WX TMP DP RH WIND PRES REMARKS
 
JACKSON PTCLDY 52 40 63 SE8 29.79F  
LONDON CLOUDY 52 44 74 SE3 29.78S  
SOMERSET CLOUDY 52 43 71 S3 29.77S  
MIDDLESBORO DRIZZLE 48 47 97 CALM 29.83S  
MONTICELLO MOCLDY 54 49 83 S15G21 29.79S  

 
 
CLICK HERE TO GO TO PREVIOUS BULLETINS.

The Nexlab KY Page Main Text Page